,,,PA_Meas_PMT16A,,PR_Meas_QMR101_102,,RH_Meas_QMH101,,SR_Meas_QMS101,,TA_Meas_QMH101,,GenWind,,GenWind,
date,time,status,PA,status,PR,status,RH,status,SR,status,TA,status,DirAvg,status,SpdAvg,
2009-01-04, 00:00:04,VALID,1004.59,VALID,0,VALID,93.7437,VALID,0,VALID,23.8982,VALID,19,VALID,0.128906,
2009-01-04, 00:01:04,VALID,1004.58,VALID,0,VALID,93.7895,VALID,0,VALID,23.8982,VALID,19,VALID,0.05,
2009-01-04, 00:02:04,VALID,1004.55,VALID,0,VALID,93.7818,VALID,0,VALID,23.8982,VALID,19,VALID,0,
2009-01-04, 00:03:04,VALID,1004.54,VALID,0,VALID,93.82,VALID,0,VALID,23.9177,VALID,19,VALID,0,
2009-01-04, 00:04:04,VALID,1004.56,VALID,0,VALID,93.82,VALID,0,VALID,23.8982,VALID,19,VALID,0,
2009-01-04, 00:05:04,VALID,1004.54,VALID,0,VALID,93.8429,VALID,0,VALID,23.9,VALID,19,VALID,0,
2009-01-04, 00:06:04,VALID,1004.53,VALID,0,VALID,93.8657,VALID,0,VALID,23.9,VALID,19,VALID,0,
2009-01-04, 00:07:04,VALID,1004.53,VALID,0,VALID,93.881,VALID,0,VALID,23.9,VALID,19,VALID,0.0105469,
2009-01-04, 00:08:04,VALID,1004.52,VALID,0,VALID,93.8581,VALID,0,VALID,23.8593,VALID,19,VALID,0,
2009-01-04, 00:09:04,VALID,1004.5,VALID,0,VALID,93.9039,VALID,0,VALID,23.8593,VALID,19,VALID,0,
2009-01-04, 00:10:04,VALID,1004.51,VALID,0,VALID,93.9115,VALID,0,VALID,23.8787,VALID,19,VALID,0,
2009-01-04, 00:11:04,VALID,1004.46,VALID,0,VALID,93.9268,VALID,0.100563,VALID,23.838,VALID,19,VALID,0,
2009-01-04, 00:12:04,VALID,1004.46,VALID,0,VALID,94.0107,VALID,0,VALID,23.8787,VALID,19,VALID,0.249219,
2009-01-04, 00:13:04,VALID,1004.44,VALID,0,VALID,94.0717,VALID,0,VALID,23.8787,VALID,19,VALID,0.2625,
2009-01-04, 00:14:04,VALID,1004.38,VALID,0,VALID,94.0488,VALID,0,VALID,23.8787,VALID,19,VALID,0.235938,
2009-01-04, 00:15:04,VALID,1004.36,VALID,0,VALID,94.0183,VALID,0,VALID,23.8787,VALID,19,VALID,0.169141,
2009-01-04, 00:16:04,VALID,1004.34,VALID,0,VALID,93.9954,VALID,0,VALID,23.8787,VALID,19,VALID,0.196094,
2009-01-04, 00:17:04,VALID,1004.31,VALID,0,VALID,93.9878,VALID,0.100563,VALID,23.8593,VALID,19,VALID,0.355078,
2009-01-04, 00:18:04,VALID,1004.29,VALID,0,VALID,94.0031,VALID,0.100563,VALID,23.8593,VALID,19,VALID,0.173047,
2009-01-04, 00:19:04,VALID,1004.24,VALID,0,VALID,94.0107,VALID,0,VALID,23.8185,VALID,19,VALID,0.175,
2009-01-04, 00:20:04,VALID,1004.26,VALID,0,VALID,94.0336,VALID,0.100563,VALID,23.838,VALID,19,VALID,0.0667969,
2009-01-04, 00:21:04,VALID,1004.24,VALID,0,VALID,94.087,VALID,0.100563,VALID,23.8398,VALID,19,VALID,0.201953,
2009-01-04, 00:22:04,VALID,1004.24,VALID,0,VALID,94.1099,VALID,0.100563,VALID,23.8185,VALID,19,VALID,0.286328,
2009-01-04, 00:23:04,VALID,1004.23,VALID,0,VALID,94.1251,VALID,0.100563,VALID,23.8185,VALID,19,VALID,0.0378906,
2009-01-04, 00:24:04,VALID,1004.2,VALID,0,VALID,94.1633,VALID,0,VALID,23.8398,VALID,19,VALID,0,
2009-01-04, 00:25:04,VALID,1004.19,VALID,0,VALID,94.2319,VALID,0.100563,VALID,23.8185,VALID,19,VALID,0.278125,
2009-01-04, 00:26:04,VALID,1004.19,VALID,0,VALID,94.2396,VALID,0.100563,VALID,23.8593,VALID,19,VALID,0.253516,
2009-01-04, 00:27:04,VALID,1004.16,VALID,0,VALID,94.2701,VALID,0,VALID,23.8593,VALID,19,VALID,0.359766,
2009-01-04, 00:28:04,VALID,1004.14,VALID,0,VALID,94.2701,VALID,0,VALID,23.838,VALID,19,VALID,0.376563,
2009-01-04, 00:29:04,VALID,1004.11,VALID,0,VALID,94.2624,VALID,0.100563,VALID,23.8398,VALID,19,VALID,0.325781,
2009-01-04, 00:30:04,VALID,1004.09,VALID,0,VALID,94.2472,VALID,0,VALID,23.8185,VALID,17,VALID,0.378125,
2009-01-04, 00:31:04,VALID,1004.05,VALID,0,VALID,94.2548,VALID,0.100563,VALID,23.8203,VALID,15,VALID,0.377344,
2009-01-04, 00:32:04,VALID,1004.02,VALID,0,VALID,94.2701,VALID,0,VALID,23.8203,VALID,357,VALID,0.460547,
2009-01-04, 00:33:04,VALID,1004,VALID,0,VALID,94.2624,VALID,0.100563,VALID,23.7796,VALID,357,VALID,0.440625,
2009-01-04, 00:34:04,VALID,1004.09,VALID,0,VALID,94.2853,VALID,0.100563,VALID,23.8009,VALID,357,VALID,0.382813,
2009-01-04, 00:35:04,VALID,1003.97,VALID,0,VALID,94.2777,VALID,0,VALID,23.7814,VALID,357,VALID,0.332031,
2009-01-04, 00:36:04,VALID,1003.95,VALID,0,VALID,94.3387,VALID,0,VALID,23.7814,VALID,357,VALID,0.421875,
2009-01-04, 00:37:04,VALID,1003.94,VALID,0,VALID,94.3158,VALID,0.100563,VALID,23.7814,VALID,357,VALID,0.406641,
2009-01-04, 00:38:04,VALID,1003.94,VALID,0,VALID,94.3235,VALID,0.100563,VALID,23.8027,VALID,357,VALID,0.304688,
2009-01-04, 00:39:04,VALID,1003.94,VALID,0,VALID,94.3769,VALID,0,VALID,23.7619,VALID,357,VALID,0.357031,
2009-01-04, 00:40:04,VALID,1003.94,VALID,0,VALID,94.3921,VALID,0.100563,VALID,23.7407,VALID,357,VALID,0.287109,
2009-01-04, 00:41:04,VALID,1003.92,VALID,0,VALID,94.3845,VALID,0,VALID,23.7407,VALID,357,VALID,0.396094,
2009-01-04, 00:42:04,VALID,1003.92,VALID,0,VALID,94.3998,VALID,0.100563,VALID,23.7425,VALID,357,VALID,0.405078,
2009-01-04, 00:43:04,VALID,1003.88,VALID,0,VALID,94.4379,VALID,0,VALID,23.7619,VALID,357,VALID,0.274219,
2009-01-04, 00:44:04,VALID,1003.88,VALID,0,VALID,94.4379,VALID,0,VALID,23.7425,VALID,357,VALID,0.293359,
2009-01-04, 00:45:04,VALID,1003.89,VALID,0,VALID,94.4227,VALID,0,VALID,23.7425,VALID,357,VALID,0.186328,
2009-01-04, 00:46:04,VALID,1003.87,VALID,0,VALID,94.4303,VALID,0.100563,VALID,23.7425,VALID,357,VALID,0.148828,
2009-01-04, 00:47:04,VALID,1003.85,VALID,0,VALID,94.4303,VALID,0,VALID,23.723,VALID,357,VALID,0,
2009-01-04, 00:48:04,VALID,1003.84,VALID,0,VALID,94.4608,VALID,0.100563,VALID,23.723,VALID,357,VALID,0,
2009-01-04, 00:49:04,VALID,1003.85,VALID,0,VALID,94.4684,VALID,0.100563,VALID,23.6823,VALID,357,VALID,0,
2009-01-04, 00:50:04,VALID,1003.81,VALID,0,VALID,94.4684,VALID,0.100563,VALID,23.6823,VALID,357,VALID,0,
2009-01-04, 00:51:04,VALID,1003.77,VALID,0,VALID,94.4684,VALID,0.100563,VALID,23.6628,VALID,357,VALID,0,
2009-01-04, 00:52:04,VALID,1003.75,VALID,0,VALID,94.4989,VALID,0.100563,VALID,23.6434,VALID,357,VALID,0,
2009-01-04, 00:53:04,VALID,1003.73,VALID,0,VALID,94.5142,VALID,0.100563,VALID,23.6646,VALID,357,VALID,0,
2009-01-04, 00:54:04,VALID,1003.73,VALID,0,VALID,94.5218,VALID,0.100563,VALID,23.6434,VALID,357,VALID,0,
2009-01-04, 00:55:04,VALID,1003.69,VALID,0,VALID,94.5218,VALID,0.100563,VALID,23.6434,VALID,357,VALID,0,
2009-01-04, 00:56:04,VALID,1003.67,VALID,0,VALID,94.5142,VALID,0.100563,VALID,23.6452,VALID,357,VALID,0,
2009-01-04, 00:57:04,VALID,1003.64,VALID,0,VALID,94.5295,VALID,0.100563,VALID,23.6044,VALID,357,VALID,0,
2009-01-04, 00:58:04,VALID,1003.6,VALID,0,VALID,94.5295,VALID,0.100563,VALID,23.6044,VALID,357,VALID,0,
2009-01-04, 00:59:04,VALID,1003.58,VALID,0,VALID,94.5523,VALID,0.100563,VALID,23.6044,VALID,357,VALID,0,
2009-01-04, 01:00:04,VALID,1003.55,VALID,0,VALID,94.5829,VALID,0.100563,VALID,23.6062,VALID,357,VALID,0,
2009-01-04, 01:01:04,VALID,1003.53,VALID,0,VALID,94.5676,VALID,0.100563,VALID,23.6062,VALID,357,VALID,0,
2009-01-04, 01:02:04,VALID,1003.49,VALID,0,VALID,94.5752,VALID,0,VALID,23.5637,VALID,357,VALID,0,
2009-01-04, 01:03:04,VALID,1003.52,VALID,0,VALID,94.5981,VALID,0.100563,VALID,23.5655,VALID,357,VALID,0,
2009-01-04, 01:04:04,VALID,1003.48,VALID,0,VALID,94.5981,VALID,0,VALID,23.5868,VALID,357,VALID,0,
2009-01-04, 01:05:04,VALID,1003.48,VALID,0,VALID,94.621,VALID,0,VALID,23.5868,VALID,357,VALID,0,
2009-01-04, 01:06:04,VALID,1003.47,VALID,0,VALID,94.6363,VALID,0.100563,VALID,23.5655,VALID,357,VALID,0,
2009-01-04, 01:07:04,VALID,1003.47,VALID,0,VALID,94.6515,VALID,0,VALID,23.5868,VALID,357,VALID,0,
2009-01-04, 01:08:04,VALID,1003.48,VALID,0,VALID,94.6439,VALID,0.100563,VALID,23.6062,VALID,357,VALID,0,
2009-01-04, 01:09:04,VALID,1003.48,VALID,0,VALID,94.6363,VALID,0,VALID,23.5868,VALID,357,VALID,0,
2009-01-04, 01:10:04,VALID,1003.48,VALID,0,VALID,94.6439,VALID,0,VALID,23.5868,VALID,357,VALID,0,
2009-01-04, 01:11:04,VALID,1003.48,VALID,0,VALID,94.6515,VALID,0,VALID,23.5655,VALID,357,VALID,0,
2009-01-04, 01:12:04,VALID,1003.47,VALID,0,VALID,94.6591,VALID,0,VALID,23.5868,VALID,357,VALID,0,
2009-01-04, 01:13:04,VALID,1003.49,VALID,0,VALID,94.6668,VALID,0,VALID,23.5655,VALID,357,VALID,0,
2009-01-04, 01:14:04,VALID,1003.48,VALID,0,VALID,94.6515,VALID,0,VALID,23.5655,VALID,357,VALID,0,
2009-01-04, 01:15:04,VALID,1003.42,VALID,0,VALID,94.6363,VALID,0,VALID,23.5655,VALID,357,VALID,0,
2009-01-04, 01:16:04,VALID,1003.42,VALID,0,VALID,94.6439,VALID,0,VALID,23.5655,VALID,357,VALID,0,
2009-01-04, 01:17:04,VALID,1003.42,VALID,0,VALID,94.6286,VALID,0,VALID,23.5868,VALID,357,VALID,0.183594,
2009-01-04, 01:18:04,VALID,1003.41,VALID,0,VALID,94.6515,VALID,0.100563,VALID,23.5868,VALID,357,VALID,0.183203,
2009-01-04, 01:19:04,VALID,1003.41,VALID,0,VALID,94.6668,VALID,0,VALID,23.6062,VALID,357,VALID,0.198828,
2009-01-04, 01:20:04,VALID,1003.42,VALID,0,VALID,94.6668,VALID,0,VALID,23.585,VALID,357,VALID,0.259375,
2009-01-04, 01:21:04,VALID,1003.42,VALID,0,VALID,94.6744,VALID,0,VALID,23.6257,VALID,357,VALID,0.258594,
2009-01-04, 01:22:04,VALID,1003.42,VALID,0,VALID,94.6286,VALID,0,VALID,23.6257,VALID,357,VALID,0.469922,
2009-01-04, 01:23:04,VALID,1003.44,VALID,0,VALID,94.5905,VALID,0,VALID,23.6452,VALID,357,VALID,0.311328,
2009-01-04, 01:24:04,VALID,1003.4,VALID,0,VALID,94.5523,VALID,0,VALID,23.6239,VALID,357,VALID,0,
2009-01-04, 01:25:04,VALID,1003.4,VALID,0,VALID,94.5295,VALID,0,VALID,23.6434,VALID,357,VALID,0,
2009-01-04, 01:26:04,VALID,1003.42,VALID,0,VALID,94.4837,VALID,0,VALID,23.6239,VALID,357,VALID,0.202734,
2009-01-04, 01:27:04,VALID,1003.39,VALID,0,VALID,94.4608,VALID,0,VALID,23.6239,VALID,357,VALID,0.223438,
2009-01-04, 01:28:04,VALID,1003.38,VALID,0,VALID,94.4455,VALID,0,VALID,23.6646,VALID,357,VALID,0.258203,
2009-01-04, 01:29:04,VALID,1003.37,VALID,0,VALID,94.3921,VALID,0,VALID,23.6646,VALID,359,VALID,0.395312,
2009-01-04, 01:30:04,VALID,1003.35,VALID,0,VALID,94.3464,VALID,0,VALID,23.6434,VALID,8,VALID,0.210156,
2009-01-04, 01:31:04,VALID,1003.32,VALID,0,VALID,94.3235,VALID,0.100563,VALID,23.6434,VALID,9,VALID,0.190234,
2009-01-04, 01:32:04,VALID,1003.34,VALID,0,VALID,94.293,VALID,0.100563,VALID,23.6628,VALID,9,VALID,0.195313,
2009-01-04, 01:33:05,VALID,1003.3,VALID,0,VALID,94.2701,VALID,0.100563,VALID,23.6628,VALID,9,VALID,0.215234,
2009-01-04, 01:34:05,VALID,1003.3,VALID,0,VALID,94.2472,VALID,0,VALID,23.7035,VALID,9,VALID,0.186328,
2009-01-04, 01:35:05,VALID,1003.29,VALID,0,VALID,94.2472,VALID,0,VALID,23.6841,VALID,9,VALID,0.237891,
2009-01-04, 01:36:05,VALID,1003.29,VALID,0,VALID,94.209,VALID,0,VALID,23.7035,VALID,9,VALID,0.176172,
2009-01-04, 01:37:05,VALID,1003.28,VALID,0,VALID,94.209,VALID,0,VALID,23.6628,VALID,9,VALID,0.168359,
2009-01-04, 01:38:05,VALID,1003.27,VALID,0,VALID,94.1556,VALID,0,VALID,23.6646,VALID,9,VALID,0.19375,
2009-01-04, 01:39:05,VALID,1003.24,VALID,0,VALID,94.0946,VALID,0,VALID,23.6239,VALID,9,VALID,0.139453,
2009-01-04, 01:40:05,VALID,1003.21,VALID,0,VALID,94.1022,VALID,0,VALID,23.6239,VALID,9,VALID,0.078125,
2009-01-04, 01:41:05,VALID,1003.21,VALID,0,VALID,94.1175,VALID,0,VALID,23.6257,VALID,9,VALID,0.188281,
2009-01-04, 01:42:05,VALID,1003.18,VALID,0,VALID,94.1633,VALID,0,VALID,23.6257,VALID,9,VALID,0.198437,
2009-01-04, 01:43:05,VALID,1003.15,VALID,0,VALID,94.2014,VALID,0.100563,VALID,23.6257,VALID,9,VALID,0,
2009-01-04, 01:44:05,VALID,1003.15,VALID,0,VALID,94.2472,VALID,0,VALID,23.6452,VALID,9,VALID,0,
2009-01-04, 01:45:05,VALID,1003.13,VALID,0,VALID,94.2853,VALID,0,VALID,23.6239,VALID,9,VALID,0,
2009-01-04, 01:46:05,VALID,1003.14,VALID,0,VALID,94.3082,VALID,0,VALID,23.6434,VALID,9,VALID,0,
2009-01-04, 01:47:05,VALID,1003.11,VALID,0,VALID,94.3158,VALID,0,VALID,23.6239,VALID,9,VALID,0,
2009-01-04, 01:48:05,VALID,1003.11,VALID,0,VALID,94.3006,VALID,0,VALID,23.6452,VALID,9,VALID,0,
2009-01-04, 01:49:05,VALID,1003.08,VALID,0,VALID,94.3006,VALID,0,VALID,23.6257,VALID,9,VALID,0,
2009-01-04, 01:50:05,VALID,1003.1,VALID,0,VALID,94.3158,VALID,0.100563,VALID,23.6044,VALID,9,VALID,0,
2009-01-04, 01:51:05,VALID,1003.08,VALID,0,VALID,94.3235,VALID,0,VALID,23.6257,VALID,9,VALID,0,
2009-01-04, 01:52:05,VALID,1003.04,VALID,0,VALID,94.354,VALID,0,VALID,23.6062,VALID,9,VALID,0,
2009-01-04, 01:53:05,VALID,1003.05,VALID,0,VALID,94.3692,VALID,0,VALID,23.6257,VALID,9,VALID,0,
2009-01-04, 01:54:05,VALID,1003.04,VALID,0,VALID,94.3845,VALID,0.100563,VALID,23.6044,VALID,9,VALID,0,
2009-01-04, 01:55:05,VALID,1003.03,VALID,0,VALID,94.415,VALID,0,VALID,23.6257,VALID,9,VALID,0,
2009-01-04, 01:56:05,VALID,1003.01,VALID,0,VALID,94.3921,VALID,0,VALID,23.6044,VALID,9,VALID,0,
2009-01-04, 01:57:05,VALID,1003.03,VALID,0,VALID,94.3921,VALID,0,VALID,23.6044,VALID,9,VALID,0,
2009-01-04, 01:58:05,VALID,1003.02,VALID,0,VALID,94.3845,VALID,0,VALID,23.585,VALID,9,VALID,0,
2009-01-04, 01:59:05,VALID,1003.05,VALID,0,VALID,94.4074,VALID,0,VALID,23.6257,VALID,9,VALID,0,
2009-01-04, 02:00:05,VALID,1003.04,VALID,0,VALID,94.3769,VALID,0,VALID,23.585,VALID,9,VALID,0,
2009-01-04, 02:01:05,VALID,1003.04,VALID,0,VALID,94.3845,VALID,0,VALID,23.5655,VALID,9,VALID,0,
2009-01-04, 02:02:05,VALID,1003.04,VALID,0,VALID,94.3845,VALID,0,VALID,23.6062,VALID,9,VALID,0,
2009-01-04, 02:03:05,VALID,1003.03,VALID,0,VALID,94.3769,VALID,0,VALID,23.5655,VALID,9,VALID,0,
2009-01-04, 02:04:05,VALID,1003.07,VALID,0,VALID,94.3845,VALID,0.100563,VALID,23.5868,VALID,57,VALID,0.425781,
2009-01-04, 02:05:05,VALID,1003.08,VALID,0,VALID,94.3769,VALID,0,VALID,23.6062,VALID,60,VALID,0.26875,
2009-01-04, 02:06:05,VALID,1003.09,VALID,0,VALID,94.3692,VALID,0.100563,VALID,23.6257,VALID,60,VALID,0.126953,
2009-01-04, 02:07:05,VALID,1003.08,VALID,0,VALID,94.3006,VALID,0,VALID,23.6044,VALID,60,VALID,0,
2009-01-04, 02:08:05,VALID,1003.06,VALID,0,VALID,94.2701,VALID,0,VALID,23.6044,VALID,60,VALID,0.000390625,
2009-01-04, 02:09:05,VALID,1003.07,VALID,0,VALID,94.1938,VALID,0,VALID,23.6044,VALID,60,VALID,0,
2009-01-04, 02:10:05,VALID,1003.07,VALID,0,VALID,94.1785,VALID,0,VALID,23.6062,VALID,60,VALID,0,
2009-01-04, 02:11:05,VALID,1003.08,VALID,0,VALID,94.1175,VALID,0,VALID,23.6062,VALID,60,VALID,0,
2009-01-04, 02:12:05,VALID,1003.03,VALID,0,VALID,94.087,VALID,0,VALID,23.5868,VALID,60,VALID,0,
2009-01-04, 02:13:05,VALID,1003.01,VALID,0,VALID,94.0488,VALID,0,VALID,23.608,VALID,60,VALID,0,
2009-01-04, 02:14:05,VALID,1003.03,VALID,0,VALID,94.0565,VALID,0,VALID,23.5868,VALID,60,VALID,0,
2009-01-04, 02:15:05,VALID,1003.02,VALID,0,VALID,94.0488,VALID,0,VALID,23.5868,VALID,60,VALID,0,
2009-01-04, 02:16:05,VALID,1003.01,VALID,0,VALID,93.9954,VALID,0,VALID,23.5673,VALID,60,VALID,0,
2009-01-04, 02:17:05,VALID,1003.02,VALID,0,VALID,93.9725,VALID,0,VALID,23.5478,VALID,60,VALID,0.100391,
2009-01-04, 02:18:05,VALID,1003,VALID,0,VALID,93.9497,VALID,0,VALID,23.5478,VALID,60,VALID,0.369141,
2009-01-04, 02:19:05,VALID,1002.97,VALID,0,VALID,94.0107,VALID,0,VALID,23.5673,VALID,60,VALID,0.316016,
2009-01-04, 02:20:05,VALID,1002.96,VALID,0,VALID,94.0031,VALID,0,VALID,23.5673,VALID,60,VALID,0.269922,
2009-01-04, 02:21:05,VALID,1002.93,VALID,0,VALID,93.9954,VALID,0,VALID,23.5478,VALID,60,VALID,0,
2009-01-04, 02:22:05,VALID,1002.93,VALID,0,VALID,94.0107,VALID,0,VALID,23.5284,VALID,60,VALID,0.00195313,
2009-01-04, 02:23:05,VALID,1002.92,VALID,0,VALID,94.0107,VALID,0,VALID,23.5284,VALID,60,VALID,0.287891,
2009-01-04, 02:24:05,VALID,1002.94,VALID,0,VALID,94.0183,VALID,0,VALID,23.5089,VALID,60,VALID,0,
2009-01-04, 02:25:05,VALID,1002.91,VALID,0,VALID,94.0259,VALID,0.100563,VALID,23.5284,VALID,60,VALID,0.00429688,
2009-01-04, 02:26:05,VALID,1002.92,VALID,0,VALID,94.0336,VALID,0,VALID,23.5284,VALID,60,VALID,0.233984,
2009-01-04, 02:27:05,VALID,1002.92,VALID,0,VALID,94.0412,VALID,0.100563,VALID,23.5284,VALID,60,VALID,0.141016,
2009-01-04, 02:28:05,VALID,1002.94,VALID,0,VALID,94.0107,VALID,0.100563,VALID,23.5266,VALID,60,VALID,0.15,
2009-01-04, 02:29:05,VALID,1002.93,VALID,0,VALID,93.9802,VALID,0.100563,VALID,23.546,VALID,60,VALID,0,
2009-01-04, 02:30:05,VALID,1002.9,VALID,0,VALID,93.9268,VALID,0.100563,VALID,23.5655,VALID,60,VALID,0,
2009-01-04, 02:31:05,VALID,1002.9,VALID,0,VALID,93.9268,VALID,0,VALID,23.546,VALID,60,VALID,0.0605469,
2009-01-04, 02:32:05,VALID,1002.89,VALID,0,VALID,93.8963,VALID,0.100563,VALID,23.5673,VALID,60,VALID,0,
2009-01-04, 02:33:05,VALID,1002.88,VALID,0,VALID,93.8963,VALID,0.100563,VALID,23.5655,VALID,60,VALID,0,
2009-01-04, 02:34:05,VALID,1002.86,VALID,0,VALID,93.8963,VALID,0.100563,VALID,23.5478,VALID,60,VALID,0,
2009-01-04, 02:35:05,VALID,1002.87,VALID,0,VALID,93.8734,VALID,0,VALID,23.5071,VALID,60,VALID,0,
2009-01-04, 02:36:05,VALID,1002.88,VALID,0,VALID,93.8734,VALID,0.100563,VALID,23.5266,VALID,60,VALID,0,
2009-01-04, 02:37:05,VALID,1002.85,VALID,0,VALID,93.8734,VALID,0.100563,VALID,23.5071,VALID,60,VALID,0,
2009-01-04, 02:38:05,VALID,1002.85,VALID,0,VALID,93.8505,VALID,0.100563,VALID,23.5071,VALID,60,VALID,0,
2009-01-04, 02:39:05,VALID,1002.87,VALID,0,VALID,93.8505,VALID,0.100563,VALID,23.4877,VALID,60,VALID,0,
2009-01-04, 02:40:05,VALID,1002.86,VALID,0,VALID,93.8352,VALID,0,VALID,23.4894,VALID,60,VALID,0.157031,
2009-01-04, 02:41:05,VALID,1002.89,VALID,0,VALID,93.8352,VALID,0,VALID,23.5302,VALID,60,VALID,0,
2009-01-04, 02:42:05,VALID,1002.9,VALID,0,VALID,93.8352,VALID,0,VALID,23.5089,VALID,60,VALID,0,
2009-01-04, 02:43:05,VALID,1002.9,VALID,0,VALID,93.8047,VALID,0,VALID,23.5284,VALID,60,VALID,0,
2009-01-04, 02:44:05,VALID,1002.91,VALID,0,VALID,93.7589,VALID,0,VALID,23.5478,VALID,60,VALID,0,
2009-01-04, 02:45:05,VALID,1002.92,VALID,0,VALID,93.7513,VALID,0,VALID,23.5478,VALID,60,VALID,0,
2009-01-04, 02:46:05,VALID,1002.94,VALID,0,VALID,93.7589,VALID,0,VALID,23.5691,VALID,60,VALID,0,
2009-01-04, 02:47:05,VALID,1002.94,VALID,0,VALID,93.8123,VALID,0,VALID,23.5673,VALID,60,VALID,0.0234375,
2009-01-04, 02:48:05,VALID,1002.97,VALID,0,VALID,93.7513,VALID,0,VALID,23.5673,VALID,60,VALID,0.204297,
2009-01-04, 02:49:05,VALID,1002.98,VALID,0,VALID,93.7055,VALID,0,VALID,23.5885,VALID,60,VALID,0.159375,
2009-01-04, 02:50:05,VALID,1002.95,VALID,0,VALID,93.6903,VALID,0,VALID,23.5885,VALID,60,VALID,0.3125,
2009-01-04, 02:51:05,VALID,1002.94,VALID,0,VALID,93.6598,VALID,0,VALID,23.5673,VALID,59,VALID,0.463672,
2009-01-04, 02:52:05,VALID,1002.93,VALID,0,VALID,93.6674,VALID,0,VALID,23.5673,VALID,54,VALID,0.477344,
2009-01-04, 02:53:05,VALID,1002.92,VALID,0,VALID,93.7132,VALID,0,VALID,23.5673,VALID,47,VALID,0.444922,
2009-01-04, 02:54:05,VALID,1002.92,VALID,0,VALID,93.7742,VALID,0,VALID,23.5691,VALID,29,VALID,0.525,
2009-01-04, 02:55:05,VALID,1002.89,VALID,0,VALID,93.8352,VALID,0,VALID,23.5655,VALID,24,VALID,0.427734,
2009-01-04, 02:56:05,VALID,1002.91,VALID,0,VALID,93.8963,VALID,0,VALID,23.608,VALID,24,VALID,0.431641,
2009-01-04, 02:57:05,VALID,1002.87,VALID,0,VALID,93.9497,VALID,0,VALID,23.5868,VALID,24,VALID,0.375391,
2009-01-04, 02:58:05,VALID,1002.91,VALID,0,VALID,94.0336,VALID,0.100563,VALID,23.6062,VALID,23,VALID,0.516406,
2009-01-04, 02:59:05,VALID,1002.91,VALID,0,VALID,94.0412,VALID,0,VALID,23.5637,VALID,21,VALID,0.511328,
2009-01-04, 03:00:05,VALID,1002.92,VALID,0,VALID,94.1022,VALID,0.100563,VALID,23.585,VALID,20,VALID,0.510938,
2009-01-04, 03:01:05,VALID,1002.89,VALID,0,VALID,94.1022,VALID,0.100563,VALID,23.6044,VALID,19,VALID,0.385938,
2009-01-04, 03:02:05,VALID,1002.91,VALID,0,VALID,94.1251,VALID,0.100563,VALID,23.585,VALID,20,VALID,0.457422,
2009-01-04, 03:03:05,VALID,1002.91,VALID,0,VALID,94.1251,VALID,0,VALID,23.585,VALID,14,VALID,0.545703,
2009-01-04, 03:04:05,VALID,1002.9,VALID,0,VALID,94.1862,VALID,0.100563,VALID,23.585,VALID,8,VALID,0.484766,
2009-01-04, 03:05:05,VALID,1002.93,VALID,0,VALID,94.2014,VALID,0.100563,VALID,23.6062,VALID,8,VALID,0.479688,
2009-01-04, 03:06:05,VALID,1002.94,VALID,0,VALID,94.2319,VALID,0.100563,VALID,23.6257,VALID,8,VALID,0.530469,
2009-01-04, 03:07:05,VALID,1002.96,VALID,0,VALID,94.2853,VALID,0.100563,VALID,23.6257,VALID,8,VALID,0.498828,
2009-01-04, 03:08:05,VALID,1002.96,VALID,0,VALID,94.354,VALID,0.100563,VALID,23.6044,VALID,8,VALID,0.346094,
2009-01-04, 03:09:05,VALID,1002.97,VALID,0,VALID,94.3769,VALID,0,VALID,23.6434,VALID,8,VALID,0.323438,
2009-01-04, 03:10:05,VALID,1002.96,VALID,0,VALID,94.3845,VALID,0,VALID,23.6664,VALID,8,VALID,0.273047,
2009-01-04, 03:11:05,VALID,1002.97,VALID,0,VALID,94.4074,VALID,0,VALID,23.6646,VALID,8,VALID,0.178125,
2009-01-04, 03:12:05,VALID,1002.97,VALID,0,VALID,94.3845,VALID,0,VALID,23.6646,VALID,8,VALID,0.0199219,
2009-01-04, 03:13:05,VALID,1002.96,VALID,0,VALID,94.3845,VALID,0,VALID,23.7053,VALID,8,VALID,0,
2009-01-04, 03:14:05,VALID,1002.98,VALID,0,VALID,94.354,VALID,0,VALID,23.6646,VALID,8,VALID,0,
2009-01-04, 03:15:05,VALID,1002.95,VALID,0,VALID,94.3692,VALID,0,VALID,23.6646,VALID,8,VALID,0,
2009-01-04, 03:16:05,VALID,1002.97,VALID,0,VALID,94.3769,VALID,0,VALID,23.6664,VALID,8,VALID,0,
2009-01-04, 03:17:05,VALID,1002.99,VALID,0,VALID,94.3921,VALID,0,VALID,23.6646,VALID,8,VALID,0,
2009-01-04, 03:18:05,VALID,1002.97,VALID,0,VALID,94.4532,VALID,0,VALID,23.7053,VALID,8,VALID,0,
2009-01-04, 03:19:05,VALID,1002.98,VALID,0,VALID,94.4608,VALID,0,VALID,23.7053,VALID,8,VALID,0,
2009-01-04, 03:20:05,VALID,1002.98,VALID,0,VALID,94.4684,VALID,0,VALID,23.7035,VALID,8,VALID,0.0359375,
2009-01-04, 03:21:05,VALID,1003,VALID,0,VALID,94.5142,VALID,0,VALID,23.7248,VALID,8,VALID,0.41875,
2009-01-04, 03:22:05,VALID,1003.02,VALID,0,VALID,94.5295,VALID,0,VALID,23.723,VALID,8,VALID,0.272266,
2009-01-04, 03:23:05,VALID,1003.02,VALID,0,VALID,94.5981,VALID,0,VALID,23.7619,VALID,8,VALID,0.235547,
2009-01-04, 03:24:05,VALID,1003,VALID,0,VALID,94.5447,VALID,0,VALID,23.8027,VALID,8,VALID,0,
2009-01-04, 03:25:05,VALID,1002.99,VALID,0,VALID,94.5142,VALID,0,VALID,23.8009,VALID,8,VALID,0,
2009-01-04, 03:26:05,VALID,1003,VALID,0,VALID,94.4684,VALID,0,VALID,23.7814,VALID,8,VALID,0,
2009-01-04, 03:27:05,VALID,1003.01,VALID,0,VALID,94.4608,VALID,0,VALID,23.8009,VALID,8,VALID,0,
2009-01-04, 03:28:05,VALID,1003,VALID,0,VALID,94.4684,VALID,0,VALID,23.8203,VALID,8,VALID,0,
2009-01-04, 03:29:05,VALID,1002.99,VALID,0,VALID,94.4684,VALID,0,VALID,23.8203,VALID,8,VALID,0,
2009-01-04, 03:30:05,VALID,1003.03,VALID,0,VALID,94.4761,VALID,0,VALID,23.8203,VALID,8,VALID,0,
2009-01-04, 03:31:05,VALID,1003,VALID,0,VALID,94.4913,VALID,0,VALID,23.8203,VALID,8,VALID,0,
2009-01-04, 03:32:05,VALID,1003.01,VALID,0,VALID,94.5218,VALID,0,VALID,23.8398,VALID,8,VALID,0,
2009-01-04, 03:33:05,VALID,1002.99,VALID,0,VALID,94.5295,VALID,0,VALID,23.8185,VALID,8,VALID,0,
2009-01-04, 03:34:05,VALID,1002.95,VALID,0,VALID,94.5295,VALID,0,VALID,23.8593,VALID,8,VALID,0,
2009-01-04, 03:35:05,VALID,1002.95,VALID,0,VALID,94.5829,VALID,0,VALID,23.8805,VALID,8,VALID,0,
2009-01-04, 03:36:05,VALID,1002.92,VALID,0,VALID,94.5829,VALID,0,VALID,23.8787,VALID,8,VALID,0,
2009-01-04, 03:37:05,VALID,1002.94,VALID,0,VALID,94.5905,VALID,0,VALID,23.8982,VALID,5,VALID,0,
2009-01-04, 03:38:05,VALID,1002.92,VALID,0,VALID,94.5905,VALID,0,VALID,23.8982,VALID,5,VALID,0,
2009-01-04, 03:39:05,VALID,1002.87,VALID,0,VALID,94.5905,VALID,0,VALID,23.9371,VALID,5,VALID,0,
2009-01-04, 03:40:05,VALID,1002.88,VALID,0,VALID,94.5829,VALID,0,VALID,23.9371,VALID,5,VALID,0,
2009-01-04, 03:41:05,VALID,1002.87,VALID,0,VALID,94.6363,VALID,0,VALID,23.9159,VALID,5,VALID,0.0171875,
2009-01-04, 03:42:05,VALID,1002.84,VALID,0,VALID,94.5752,VALID,0,VALID,23.9566,VALID,5,VALID,0.449219,
2009-01-04, 03:43:05,VALID,1002.85,VALID,0,VALID,94.5752,VALID,0,VALID,23.9566,VALID,4,VALID,0.471094,
2009-01-04, 03:44:05,VALID,1002.84,VALID,0,VALID,94.621,VALID,0,VALID,23.9761,VALID,4,VALID,0.348047,
2009-01-04, 03:45:05,VALID,1002.84,VALID,0,VALID,94.5829,VALID,0,VALID,23.9761,VALID,4,VALID,0,
2009-01-04, 03:46:05,VALID,1002.87,VALID,0,VALID,94.5371,VALID,0,VALID,23.9566,VALID,5,VALID,0.364844,
2009-01-04, 03:47:05,VALID,1002.89,VALID,0,VALID,94.5295,VALID,0,VALID,23.9779,VALID,5,VALID,0.282031,
2009-01-04, 03:48:05,VALID,1002.9,VALID,0,VALID,94.5295,VALID,0.100563,VALID,23.9371,VALID,4,VALID,0.276172,
2009-01-04, 03:49:05,VALID,1002.85,VALID,0,VALID,94.5218,VALID,0,VALID,23.9177,VALID,4,VALID,0.212109,
2009-01-04, 03:50:05,VALID,1002.86,VALID,0,VALID,94.5752,VALID,0,VALID,23.9371,VALID,4,VALID,0,